Location: Arcizac
(43.0933°N, 0.0112°E)
Time: 19:55:00
(UTC+00:00)

Daily predictions for brighter satellites

Satellite Brightness Start Highest point End
(mag) Time Altitude Azimuth Time Altitude Azimuth Time Altitude Azimuth
ATLAS 5 CENTAUR R/B 3.4 19:35:47 10° NNW 19:40:38 31° NE 19:46:12 10° ESE
Cosmos 921 Rocket 3.6 19:36:36 10° NNW 19:40:48 58° WSW 19:44:54 10° S
Cosmos 1844 4.1 19:36:19 10° S 19:41:39 41° ESE 19:46:57 10° NE
Cosmos 1408 Rocket 3.8 19:37:43 10° NNW 19:42:07 75° W 19:46:32 10° S
OBJECT-B 0.8 19:39:16 10° SSE 19:42:28 67° ENE 19:45:42 10° N
Cosmos 1842 Rocket 3.9 19:40:59 10° SSW 19:45:27 76° W 19:49:58 10° N
MetOp-A 4.3 19:40:29 10° S 19:45:50 80° WSW 19:51:14 10° NNW
IRS-1A Rocket 4.5 19:44:52 10° SSE 19:50:31 62° ENE 19:56:18 10° N
Cosmos 2208 Rocket 4.5 19:48:14 10° NNW 19:53:39 68° WSW 19:59:02 10° S
CZ-4 R/B 4.4 19:52:43 10° SW 19:54:56 14° W 19:57:09 10° WNW
Cosmos 1242 Rocket 3.9 19:53:03 10° SE 19:55:51 22° E 19:58:37 10° NE
Cosmos 1805 Rocket 3.9 19:56:14 10° N 20:00:27 48° ENE 20:04:41 10° SSE
FALCON 9 DEB 3.5 20:03:59 10° WNW 20:06:57 47° SW 20:09:21 14° SSE
DELTA 2 R/B (1) 3.8 20:02:06 10° W 20:07:33 56° S 20:12:22 13° ESE
Cosmos 1633 Rocket 4.5 20:04:32 10° NNE 20:08:02 23° ENE 20:10:42 14° ESE
ARIANE 5 R/B 4.5 20:06:12 10° E 20:08:47 16° ENE 20:11:23 10° NNE
USA 290 3.1 20:09:51 10° N 20:12:53 35° ENE 20:14:52 18° ESE
IGS 5A 4.0 20:11:11 14° SE 20:14:27 41° ENE 20:18:22 10° N
Cosmos 1743 Rocket 4.0 20:10:29 10° NNW 20:14:47 63° W 20:19:05 10° S
Intercosmos 25 Rocket 3.9 20:09:07 10° N 20:15:27 87° E 20:19:24 10° S
Resurs 1-3 3.6 20:12:13 10° SSE 20:16:36 90° ESE 20:21:01 10° NNW
Cosmos 1745 Rocket 4.0 20:11:48 10° N 20:18:00 71° E 20:24:07 10° SSE
Cosmos 1933 3.5 20:14:15 10° S 20:18:10 51° E 20:22:06 10° NNE
Cosmos 1503 Rocket 4.1 20:13:54 10° S 20:18:54 54° ESE 20:23:58 10° NNE
Cosmos 1709 Rocket 4.4 20:14:49 10° N 20:20:37 43° ENE 20:25:15 16° SE
Cosmos 1437 Rocket 2.9 20:17:06 10° SSW 20:20:56 74° WNW 20:24:53 10° N
X-37B 1.0 20:18:33 10° WNW 20:21:44 62° N 20:24:16 15° E
Cosmos 2082 Rocket 4.3 20:25:23 10° NNE 20:28:14 14° NE 20:31:05 10° ENE
Ariane Rocket 3.4 20:26:06 10° S 20:31:05 62° WSW 20:36:07 10° NNW
Meteor 1-20 Rocket 4.2 20:26:52 10° N 20:32:31 75° ENE 20:37:10 15° SSE
Cosmos 1666 Rocket 3.8 20:30:27 10° N 20:34:46 51° ENE 20:37:20 22° SSE
IRIS 3.9 20:32:29 10° W 20:34:51 54° S 20:35:51 32° ESE
S3M 4.1 20:29:48 10° S 20:36:12 84° W 20:42:35 10° N
Cosmos 2315 Rocket 4.2 20:31:36 10° SSE 20:37:42 54° E 20:43:53 10° NNE
Cosmos 1782 3.1 20:36:20 20° SSE 20:38:47 47° E 20:42:38 10° NNE
Landsat 7 3.8 20:35:42 18° SSE 20:39:10 70° ENE 20:43:54 10° N
USA 245 3.6 20:42:52 22° ENE 20:42:52 22° ENE 20:44:26 10° NNE
SPOT 1/Viking Rocket 3.7 20:45:30 23° SE 20:48:42 61° ENE 20:53:50 10° N
Cosmos 1354 Rocket 3.9 20:45:33 10° SSW 20:50:47 88° ESE 20:56:04 10° NNE
SJ 16-02 2.8 20:52:10 20° E 20:52:10 20° E 20:55:02 10° NE
Cosmos 1602 3.6 20:48:22 10° N 20:52:15 76° E 20:54:02 30° SSE
Cosmos 2278 Rocket 2.9 20:50:06 24° SE 20:52:24 33° ESE 20:57:25 10° NE
Sich 1 3.6 20:50:01 10° NNW 20:54:15 56° W 20:57:44 15° S
Resurs 01 Rocket 2.1 20:53:04 16° S 20:56:27 59° W 21:00:52 10° NNW
CRYOSAT 2 4.3 20:56:19 24° SSE 20:59:15 76° E 21:04:10 10° N
MetOp-B 4.1 20:57:13 22° SSE 21:00:49 84° WSW 21:06:13 10° NNW
Cosmos 1844 Rocket 4.2 20:56:55 10° SW 21:02:04 38° WNW 21:07:16 10° N
SPOT 3 Rocket 3.9 20:58:44 17° S 21:02:39 62° WSW 21:07:46 10° NNW
NOSS 3-3 (A) 3.7 21:00:07 10° SSW 21:05:46 81° ESE 21:12:14 10° NE
NOSS 3-3 (C) 3.7 21:00:13 10° SSW 21:05:54 81° ESE 21:12:21 10° NE
ATLAS 2AS CENTAUR R/B 4.4 21:05:02 10° NNW 21:11:09 26° NNE 21:16:52 10° E
SL-4 R/B 3.9 21:09:26 10° W 21:13:01 23° SW 21:14:33 20° SSW
Cosmos 1151 Rocket 3.3 21:09:49 17° SSW 21:13:04 68° W 21:17:27 10° N
BREEZE-M R/B 3.8 21:14:30 10° WNW 21:16:42 27° NNW 21:18:26 14° NE
Cosmos 1812 2.7 21:16:50 54° SE 21:17:17 59° E 21:21:06 10° NNE
CZ-4C R/B 3.2 21:11:59 10° NNW 21:19:13 65° NE 21:23:48 29° SE
Iridium 4 Rocket 4.0 21:18:17 35° SE 21:20:21 52° E 21:26:04 10° NNE
USA 308 4.5 21:19:44 10° NW 21:23:32 30° NNE 21:25:49 19° ENE
JB-3 4.1 21:21:17 10° NNE 21:25:12 82° E 21:25:57 56° S
ATLAS 5 CENTAUR R/B 2.7 21:19:56 10° NW 21:25:37 62° WSW 21:28:41 32° S
Cosmos 1538 Rocket 4.3 21:22:00 10° NNW 21:27:16 54° ENE 21:28:51 40° ESE
Cosmos 2084 3.6 21:23:45 10° SW 21:27:51 69° NW 21:32:05 10° NNE
Meteor 1-5 Rocket 4.0 21:23:40 10° N 21:29:05 71° ENE 21:30:46 44° SSE
OE (NEXTSAT) 4.5 21:26:27 10° WNW 21:29:55 67° NNE 21:30:08 64° NE
Milstar 3 4.1 21:19:15 10° SW 21:30:27 31° S 21:32:20 29° SSE
Cosmos 1666 2.8 21:31:25 10° N 21:34:56 58° ENE 21:34:56 58° ENE
Cosmos 1515 Rocket 3.5 21:34:01 49° S 21:35:12 89° W 21:39:38 10° N
Cosmos 773 Rocket 4.2 21:31:52 10° NNW 21:37:09 67° WSW 21:38:58 40° S
Cosmos 1833 Rocket 2.7 21:32:05 10° NNW 21:37:46 74° ENE 21:39:27 46° SE
Spot 2 Rocket 3.7 21:36:58 36° SSW 21:38:54 63° WSW 21:43:56 10° NNW
Cosmos 1869 Rocket 4.5 21:37:24 10° N 21:41:16 34° ENE 21:41:16 34° ENE
SPOT 5 2.9 21:41:10 50° SSE 21:42:33 90° NNW 21:47:48 10° NNW
BREEZE-M DEB (TANK) 4.1 21:39:37 10° WNW 21:44:29 27° SW 21:44:32 27° SW
ARIANE 5 R/B 3.1 21:43:44 42° SSW 21:44:48 53° W 21:49:04 10° NNW
Terra 1.8 21:45:33 59° SE 21:46:18 70° ENE 21:51:04 10° N
ERS-1 Rocket 3.0 21:50:41 50° S 21:51:56 73° WSW 21:56:58 10° NNW
Cosmos 1470 Rocket 4.4 21:51:58 10° NNW 21:56:14 44° W 21:57:20 37° SW
X-37B 2.8 21:55:15 10° W 21:56:32 21° W 21:56:32 21° W
Cosmos 2154 Rocket 4.1 21:52:22 10° N 21:58:41 63° E 22:00:11 49° SE
USA 305 3.5 22:01:07 10° NW 22:05:16 50° NNE 22:05:35 48° NE
Cosmos 2184 Rocket 4.0 22:00:15 10° N 22:06:29 79° W 22:08:18 48° S
Cosmos 1933 Rocket 4.2 22:06:31 10° NNW 22:10:41 46° W 22:11:03 45° WSW
Meteor 1-27 Rocket 3.7 22:12:02 61° SSE 22:13:02 78° E 22:18:57 10° NNE
Cosmos 2074 Rocket 4.2 22:07:00 10° NNW 22:13:16 68° W 22:15:13 45° SSW
Cosmos 2082 Rocket 2.1 22:07:42 10° NNW 22:13:21 74° ENE 22:14:08 63° ESE
COSMOS 2406 3.4 22:08:08 10° NNW 22:13:41 58° WSW 22:14:42 50° SSW
Meteor 2-12 Rocket 4.3 22:08:27 10° N 22:14:33 90° W 22:15:49 59° S
Nadezhda 1 Rocket 3.9 22:16:05 52° S 22:17:46 90° ENE 22:24:05 10° N
Cosmos 1898 Rocket 4.0 22:20:54 46° E 22:20:54 46° E 22:25:21 10° NNE
Cosmos 923 Rocket 4.0 22:15:03 10° NNW 22:20:19 69° ENE 22:20:38 67° E
Cosmos 1271 Rocket 3.7 22:21:47 44° WNW 22:21:48 44° WNW 22:25:40 10° N
USA 306 3.3 22:20:15 10° NW 22:24:02 60° N 22:24:02 60° N
SJ 16-02 2.5 22:29:06 34° W 22:30:07 39° WNW 22:34:18 10° N
Cosmos 1733 Rocket 4.2 22:29:09 10° N 22:32:19 35° NE 22:32:19 35° NE
Cosmos 2181 Rocket 4.4 22:34:44 45° E 22:34:54 45° E 22:40:42 10° NNE
Cosmos 1610 Rocket 4.5 22:29:29 10° NNW 22:35:36 71° W 22:36:41 58° SSW
Cosmos 2278 Rocket 3.4 22:31:49 13° WSW 22:36:23 38° WNW 22:41:39 10° N
Meteor 1-11 Rocket 4.2 22:33:26 10° NNW 22:39:16 56° W 22:40:16 50° SW
Cosmos 2228 Rocket 4.0 22:39:25 42° W 22:39:33 42° WNW 22:43:48 10° N
Cosmos 1238 Rocket 4.0 22:33:31 10° N 22:39:38 53° ENE 22:39:54 53° E
Cosmos 990 Rocket 3.9 22:40:06 87° N 22:40:06 87° N 22:45:18 10° NNE
Cosmos 1340 Rocket 3.8 22:40:29 10° N 22:43:27 47° N 22:43:27 47° N
Cosmos 2369 Rocket 3.7 22:48:04 24° ENE 22:48:04 24° ENE 22:51:09 10° NE
Cosmos 2366 rocket 4.3 22:43:06 10° N 22:49:06 50° ENE 22:49:36 49° E
NOSS 3-4 (A) 3.9 22:42:26 10° NW 22:49:31 73° WSW 22:50:58 59° S
NOSS 3-4 (C) 3.8 22:42:33 10° NW 22:49:38 74° WSW 22:51:05 59° S
Cosmos 967 Rocket 4.4 22:49:56 68° ESE 22:49:56 68° ESE 22:56:05 10° NE
USA 307 4.0 22:46:00 10° NW 22:48:53 42° NW 22:48:53 42° NW
Cosmos 2341 Rocket 3.9 22:44:37 10° N 22:51:04 82° E 22:51:45 71° SSE
Cosmos 1943 Rocket 2.5 22:52:38 52° ENE 22:52:38 52° ENE 22:57:19 10° NNE
Cosmos 1536 4.3 22:52:15 10° NNW 22:55:05 33° WNW 22:55:05 33° WNW
Meteor 2-9 Rocket 4.5 22:50:48 10° N 22:56:31 57° ENE 22:56:34 57° E
Cosmos 2112 Rocket 4.0 22:53:43 10° NNW 22:58:49 80° NW 22:58:49 80° NW
USA 215 4.2 22:57:12 16° E 23:02:04 43° NNE 23:08:10 10° NW
ATLAS 2AS CENTAUR R/B 2.6 22:55:50 10° NW 23:03:12 86° NE 23:04:17 67° SE
USA 308 4.4 22:59:32 10° NW 23:01:54 31° WNW 23:01:54 31° WNW
CZ-4C R/B 3.9 23:00:59 10° NW 23:07:42 34° WSW 23:08:59 33° SW
Cosmos 2218 Rocket 3.9 23:02:22 10° N 23:08:41 73° E 23:09:04 71° ESE
Meteor 2-4 Rocket 4.4 23:09:23 44° ENE 23:09:23 44° ENE 23:14:15 10° NNE
Cosmos 1975 4.4 23:05:57 10° N 23:08:17 31° NNE 23:08:17 31° NNE
SL-24 R/B - RUBIN 2 4.1 23:04:24 10° NNW 23:09:19 68° N 23:09:19 68° N
Terra 4.2 23:24:26 13° W 23:24:32 13° W 23:26:40 10° WNW
Cosmos 1937 Rocket 3.8 23:26:03 60° NW 23:26:03 60° NW 23:30:53 10° NNE
Cosmos 1680 Rocket 4.4 23:21:48 10° NW 23:26:06 39° W 23:26:06 39° W
Meteor 1-18 Rocket 4.2 23:27:33 80° NW 23:27:33 80° NW 23:32:58 10° N
Cosmos 2297 4.2 23:32:11 49° W 23:32:54 52° WNW 23:38:27 10° NNE
ALOS 2 3.6 23:36:53 44° NNW 23:36:53 44° NNW 23:39:57 10° NNW
SL-8 Rocket 4.2 23:29:54 10° NNW 23:36:07 59° W 23:36:25 59° WSW
Cosmos 1818 3.7 23:31:56 10° NNW 23:36:53 72° NNW 23:36:53 72° NNW
Thor Agena Rocket 4.1 23:32:23 10° NNE 23:36:39 50° ENE 23:36:39 50° ENE
DNEPR-1 R/B 4.4 23:39:47 62° WNW 23:39:58 63° NW 23:45:00 10° NNE
Okean 1-7 4.4 23:42:48 35° NNE 23:42:48 35° NNE 23:45:22 10° NNE
SL-08 R/B 4.4 23:41:07 10° N 23:47:22 82° E 23:47:30 82° ESE
Cosmos 2082 Rocket 4.2 23:53:29 10° WNW 23:55:58 15° W 23:55:58 15° W
